This is the latest recevied weather packets stored in our database for station/object WX7FGZ-6. If no packets are shown the sender has not sent any weather packets the latest 10 day(s).
| Time | Temp. | Humidity | Pressure | Rain* | Wind** | Luminosity | Snow |
|---|---|---|---|---|---|---|---|
| 1777850505 | 10° C | 37% | 1019.8 hPa | 0 mm | - | - | - |
| 1777850204 | 10° C | 35% | 1020.2 hPa | 0 mm | - | - | - |
| 1777849904 | 10° C | 36% | 1020.3 hPa | 0 mm | - | - | - |
| 1777849604 | 9.44° C | 39% | 1019.9 hPa | 0 mm | - | - | - |
| 1777849304 | 8.89° C | 41% | 1020.1 hPa | 0 mm | - | - | - |
| 1777849006 | 8.33° C | 40% | 1020.2 hPa | 0 mm | - | - | - |
| 1777848704 | 8.89° C | 41% | 1020.6 hPa | 0 mm | - | - | - |
| 1777848404 | 10° C | 36% | 1020.4 hPa | 0 mm | - | - | - |
| 1777847967 | 10° C | 35% | 1020.7 hPa | 0 mm | - | - | - |
| 1777847667 | 10° C | 40% | 1020.6 hPa | 0 mm | - | - | - |
| 1777847366 | 10° C | 40% | 1020.9 hPa | 0 mm | - | - | - |
| 1777847066 | 10° C | 44% | 1020.4 hPa | 0 mm | - | - | - |
| 1777846643 | 8.89° C | 44% | 1020.6 hPa | 0 mm | - | - | - |
| 1777846043 | 8.89° C | 46% | 1020.8 hPa | 0 mm | - | - | - |
| 1777845995 | 8.89° C | 48% | 1020.6 hPa | 0 mm | - | - | - |
| 1777845743 | 8.89° C | 48% | 1020.6 hPa | 0 mm | - | - | - |
| 1777845443 | 8.33° C | 50% | 1020.6 hPa | 0 mm | - | - | - |
| 1777845143 | 7.22° C | 53% | 1020.4 hPa | 0 mm | - | - | - |
| 1777844842 | 6.67° C | 52% | 1020.8 hPa | 0 mm | - | - | - |
| 1777844307 | 7.22° C | 54% | 1020.7 hPa | 0 mm | - | - | - |
| 1777844007 | 7.78° C | 51% | 1021.1 hPa | 0 mm | - | - | - |
| 1777843706 | 8.33° C | 51% | 1021.1 hPa | 0 mm | - | - | - |
| 1777843407 | 7.78° C | 53% | 1021 hPa | 0 mm | - | - | - |
| 1777843106 | 6.67° C | 53% | 1021.2 hPa | 0 mm | - | - | - |
| 1777842806 | 6.67° C | 53% | 1021.1 hPa | 0 mm | - | - | - |
* Rain latest hour (hover to see other rain measurements)
** Current wind speed in m/s (hover to see current wind gust speed)